Date,TemperatureHighF,TemperatureAvgF,TemperatureLowF,DewpointHighF,DewpointAvgF,DewpointLowF,HumidityHigh,HumidityAvg,HumidityLow,PressureMaxIn,PressureMinIn,WindSpeedMaxMPH,WindSpeedAvgMPH,GustSpeedMaxMPH,PrecipitationSumIn
2013-2-1,17.5,14.9,11.0,12.8,9.3,4.0,83,78,73,28.70,28.23,19,6,20,0.00
2013-2-2,20.4,14.7,10.1,17.2,9.1,3.2,87,78,73,28.70,28.38,14,4,107,0.00
2013-2-3,20.6,18.0,16.1,17.4,10.8,1.4,88,74,51,28.41,28.26,15,4,15,0.00
2013-2-4,22.2,18.4,14.3,14.1,10.2,5.0,82,70,51,28.44,28.32,12,3,12,0.00
2013-2-5,26.5,21.9,16.3,21.6,13.4,9.5,91,70,49,28.38,28.29,9,1,10,0.00
2013-2-6,28.7,22.9,11.2,24.9,9.6,-4.2,94,59,31,28.79,28.38,94,2,109,0.08
2013-2-7,44.3,26.6,7.8,17.0,7.3,-7.2,74,44,30,28.76,28.44,13,3,94,0.00
2013-2-8,35.7,28.8,18.6,34.8,20.6,10.1,100,72,52,28.61,28.23,17,5,138,0.04
2013-2-9,28.9,19.7,12.7,10.1,5.8,0.0,100,55,34,28.82,28.61,10,2,109,0.00
2013-2-10,47.2,28.0,6.4,14.1,5.7,-5.2,66,41,26,28.79,28.38,109,3,109,0.00
2013-2-11,48.3,39.2,32.6,44.7,27.2,0.0,100,65,30,28.38,28.11,26,7,50,0.08
2013-2-12,32.8,29.8,22.7,22.4,17.1,14.9,74,59,51,28.50,28.32,17,4,22,0.00
2013-2-13,38.0,29.7,23.3,24.0,18.4,0.0,83,64,39,28.38,28.17,8,1,11,0.00
2013-2-14,37.5,30.4,22.2,34.0,26.0,17.7,94,84,55,28.35,28.26,19,5,19,0.00
2013-2-15,36.1,30.9,22.9,21.9,15.7,9.0,69,53,40,28.53,28.32,50,4,50,0.00
2013-2-16,26.0,21.3,12.7,12.2,3.8,-5.1,61,47,31,28.53,28.38,9,2,10,0.00
2013-2-17,19.3,15.8,11.8,10.0,3.0,-4.4,70,57,46,28.67,28.38,9,2,11,0.00
2013-2-18,40.7,23.2,4.7,16.8,3.5,-7.1,57,44,29,28.70,28.32,14,4,15,0.00
2013-2-19,44.3,32.8,18.6,36.7,22.3,5.7,92,67,36,28.35,28.05,24,9,26,0.31
2013-2-20,20.2,17.5,15.4,12.6,7.1,-0.1,81,64,44,28.61,28.35,19,6,20,0.00
2013-2-21,21.7,17.5,11.9,12.4,6.6,0.7,79,62,48,28.79,28.59,8,2,9,0.00
2013-2-22,34.1,26.9,12.7,32.6,18.7,1.4,95,72,43,28.76,28.44,17,4,17,0.00
2013-2-23,36.1,32.5,28.1,34.3,25.5,15.3,100,77,53,28.47,28.32,10,3,10,0.00
2013-2-24,29.6,28.0,25.8,18.6,14.7,10.9,68,57,47,28.59,28.32,10,2,13,0.00
2013-2-25,39.1,29.7,20.8,28.2,16.1,0.0,94,60,31,28.67,28.53,6,1,8,0.00
2013-2-26,39.7,34.3,29.8,33.7,20.0,11.1,94,58,39,28.59,28.05,20,4,22,0.67
2013-2-27,39.7,36.4,33.7,39.3,33.2,0.0,100,89,68,28.11,28.02,17,5,18,0.20
2013-2-28,34.1,32.8,30.7,31.7,27.9,20.7,92,82,62,28.26,28.02,10,4,13,0.00